Time,TemperatureF,DewpointF,PressureIn,WindDirection,WindDirectionDegrees,WindSpeedMPH,WindSpeedGustMPH,Humidity,HourlyPrecipIn,Conditions,Clouds,dailyrainin,SoftwareType,DateUTC
2013-03-02 00:00:00,34.4,25.3,29.75,NNW,342,0.0,0.0,69,0.00,,,0.00,Wunderground v.1.15,2013-03-02 05:00:00,
2013-03-02 00:10:00,34.3,25.2,29.75,North,350,0.0,0.0,69,0.00,,,0.00,Wunderground v.1.15,2013-03-02 05:10:00,
2013-03-02 00:20:00,34.2,25.1,29.75,North,355,0.0,0.0,69,0.00,,,0.00,Wunderground v.1.15,2013-03-02 05:20:00,
2013-03-02 00:25:00,34.1,25.0,29.75,NNW,327,0.0,0.0,69,0.00,,,0.00,weatherlink.com 1.10,2013-03-02 05:25:00,
2013-03-02 00:40:00,33.9,25.0,29.75,NNW,338,0.0,0.0,69,0.00,,,0.00,weatherlink.com 1.10,2013-03-02 05:40:00,
2013-03-02 00:50:00,33.7,24.6,29.75,NNW,327,0.0,0.0,69,0.00,,,0.00,Wunderground v.1.15,2013-03-02 05:50:00,
2013-03-02 00:55:00,33.7,25.0,29.75,NW,319,0.0,0.0,70,0.00,,,0.00,weatherlink.com 1.10,2013-03-02 05:55:00,
2013-03-02 01:00:00,33.7,25.0,29.75,NNW,348,0.0,0.0,70,0.00,,,0.00,Wunderground v.1.15,2013-03-02 06:00:00,
2013-03-02 01:10:00,33.5,24.4,29.75,West,278,0.0,0.0,69,0.00,,,0.00,Wunderground v.1.15,2013-03-02 06:10:00,
2013-03-02 01:20:00,33.5,24.4,29.75,NNW,340,0.0,0.0,69,0.00,,,0.00,Wunderground v.1.15,2013-03-02 06:20:00,
2013-03-02 01:30:00,33.4,24.7,29.75,NW,325,0.0,0.0,70,0.00,,,0.00,Wunderground v.1.15,2013-03-02 06:30:00,
2013-03-02 01:39:00,33.4,24.0,29.75,NW,321,0.0,0.0,69,0.00,,,0.00,weatherlink.com 1.10,2013-03-02 06:39:00,
2013-03-02 01:50:00,33.3,24.2,29.75,NNW,338,0.0,0.0,69,0.00,,,0.00,Wunderground v.1.15,2013-03-02 06:50:00,
2013-03-02 01:55:00,33.3,24.0,29.75,NNW,329,0.0,0.0,70,0.00,,,0.00,weatherlink.com 1.10,2013-03-02 06:55:00,
2013-03-02 02:00:00,33.3,24.6,29.75,NNW,335,0.0,0.0,70,0.00,,,0.00,Wunderground v.1.15,2013-03-02 07:00:00,
2013-03-02 02:10:00,33.3,24.9,29.74,ENE,65,0.0,0.0,71,0.00,,,0.00,Wunderground v.1.15,2013-03-02 07:10:00,
2013-03-02 02:20:00,33.2,24.5,29.74,NNW,329,0.0,0.0,70,0.00,,,0.00,Wunderground v.1.15,2013-03-02 07:20:00,
2013-03-02 02:25:00,33.3,25.0,29.74,NW,325,0.0,0.0,71,0.00,,,0.00,weatherlink.com 1.10,2013-03-02 07:25:00,
2013-03-02 02:40:00,33.1,25.4,29.74,NW,312,0.0,0.0,73,0.00,,,0.00,Wunderground v.1.15,2013-03-02 07:40:00,
2013-03-02 02:50:00,33.0,25.6,29.74,NNW,329,0.0,0.0,74,0.00,,,0.00,Wunderground v.1.15,2013-03-02 07:50:00,
2013-03-02 02:55:00,32.9,25.0,29.74,NW,304,0.0,0.0,74,0.00,,,0.00,weatherlink.com 1.10,2013-03-02 07:55:00,
2013-03-02 03:00:00,32.9,25.5,29.74,NNW,346,0.0,0.0,74,0.00,,,0.00,Wunderground v.1.15,2013-03-02 08:00:00,
2013-03-02 03:10:00,32.9,25.5,29.74,West,281,0.0,0.0,74,0.00,,,0.00,Wunderground v.1.15,2013-03-02 08:10:00,
2013-03-02 03:20:00,32.9,25.5,29.74,North,350,0.0,0.0,74,0.00,,,0.00,Wunderground v.1.15,2013-03-02 08:20:00,
2013-03-02 03:26:00,32.9,27.0,29.74,North,355,0.0,0.0,79,0.00,,,0.00,weatherlink.com 1.10,2013-03-02 08:26:00,
2013-03-02 03:40:00,32.9,25.2,29.74,WNW,301,0.0,0.0,73,0.00,,,0.00,Wunderground v.1.15,2013-03-02 08:40:00,
2013-03-02 03:50:00,32.8,25.4,29.74,NW,318,0.0,0.0,74,0.00,,,0.00,Wunderground v.1.15,2013-03-02 08:50:00,
2013-03-02 03:55:00,32.8,25.0,29.74,NW,323,0.0,0.0,73,0.00,,,0.00,weatherlink.com 1.10,2013-03-02 08:55:00,
2013-03-02 04:00:00,32.8,25.1,29.74,North,355,0.0,0.0,73,0.00,,,0.00,Wunderground v.1.15,2013-03-02 09:00:00,
2013-03-02 04:10:00,32.8,25.4,29.74,NW,321,0.0,0.0,74,0.00,,,0.00,Wunderground v.1.15,2013-03-02 09:10:00,
2013-03-02 04:20:00,32.7,25.3,29.75,NW,325,0.0,0.0,74,0.00,,,0.00,Wunderground v.1.15,2013-03-02 09:20:00,
2013-03-02 04:26:00,32.7,25.0,29.75,NNW,344,0.0,0.0,74,0.00,,,0.00,weatherlink.com 1.10,2013-03-02 09:26:00,
2013-03-02 04:40:00,32.6,25.2,29.74,North,355,0.0,0.0,74,0.00,,,0.00,Wunderground v.1.15,2013-03-02 09:40:00,
2013-03-02 04:50:00,32.6,25.2,29.74,NNW,335,0.0,0.0,74,0.00,,,0.00,Wunderground v.1.15,2013-03-02 09:50:00,
2013-03-02 04:57:00,32.5,25.0,29.74,NW,323,0.0,0.0,74,0.00,,,0.00,weatherlink.com 1.10,2013-03-02 09:57:00,
2013-03-02 05:10:00,32.6,24.9,29.74,NNW,329,0.0,0.0,73,0.00,,,0.00,Wunderground v.1.15,2013-03-02 10:10:00,
2013-03-02 05:20:00,32.6,24.9,29.74,NNW,344,0.0,0.0,73,0.00,,,0.00,Wunderground v.1.15,2013-03-02 10:20:00,
2013-03-02 05:26:00,32.6,25.0,29.74,North,360,0.0,0.0,73,0.00,,,0.00,weatherlink.com 1.10,2013-03-02 10:26:00,
2013-03-02 05:40:00,32.5,24.8,29.74,NNW,330,0.0,0.0,73,0.00,,,0.00,Wunderground v.1.15,2013-03-02 10:40:00,
2013-03-02 05:50:00,32.4,25.0,29.74,NNW,341,0.0,0.0,74,0.00,,,0.00,Wunderground v.1.15,2013-03-02 10:50:00,
2013-03-02 05:57:00,32.4,25.0,29.74,NW,311,0.0,0.0,75,0.00,,,0.00,weatherlink.com 1.10,2013-03-02 10:57:00,
2013-03-02 06:10:00,32.3,25.3,29.74,NW,325,0.0,0.0,75,0.00,,,0.00,Wunderground v.1.15,2013-03-02 11:10:00,
2013-03-02 06:20:00,32.3,25.3,29.74,NNW,336,0.0,0.0,75,0.00,,,0.00,Wunderground v.1.15,2013-03-02 11:20:00,
2013-03-02 06:27:00,32.2,25.0,29.74,NNW,347,0.0,0.0,75,0.00,,,0.00,weatherlink.com 1.10,2013-03-02 11:27:00,
2013-03-02 06:40:00,32.2,25.2,29.75,NNW,331,0.0,0.0,75,0.00,,,0.00,Wunderground v.1.15,2013-03-02 11:40:00,
2013-03-02 06:50:00,32.1,25.1,29.75,North,9,0.0,0.0,75,0.00,,,0.00,Wunderground v.1.15,2013-03-02 11:50:00,
2013-03-02 06:57:00,32.2,25.0,29.75,NNE,17,0.0,0.0,75,0.00,,,0.00,weatherlink.com 1.10,2013-03-02 11:57:00,
2013-03-02 07:10:00,32.2,24.8,29.75,NW,304,0.0,0.0,74,0.00,,,0.00,Wunderground v.1.15,2013-03-02 12:10:00,
2013-03-02 07:20:00,32.3,24.9,29.75,NNW,331,0.0,0.0,74,0.00,,,0.00,Wunderground v.1.15,2013-03-02 12:20:00,
2013-03-02 07:28:00,32.3,25.0,29.75,WNW,291,0.0,0.0,74,0.00,,,0.00,weatherlink.com 1.10,2013-03-02 12:28:00,
2013-03-02 07:40:00,32.4,25.0,29.75,North,355,0.0,0.0,74,0.00,,,0.00,Wunderground v.1.15,2013-03-02 12:40:00,
2013-03-02 07:50:00,32.5,25.1,29.75,NW,322,0.0,0.0,74,0.00,,,0.00,Wunderground v.1.15,2013-03-02 12:50:00,
2013-03-02 07:58:00,32.6,25.0,29.75,NW,321,0.0,0.0,73,0.00,,,0.00,weatherlink.com 1.10,2013-03-02 12:58:00,
2013-03-02 08:10:00,33.1,25.4,29.75,WNW,288,0.0,0.0,73,0.00,,,0.00,Wunderground v.1.15,2013-03-02 13:10:00,
2013-03-02 08:20:00,33.5,25.1,29.75,NNW,329,0.0,0.0,71,0.00,,,0.00,Wunderground v.1.15,2013-03-02 13:20:00,
2013-03-02 08:28:00,33.6,25.0,29.75,North,350,0.0,0.0,71,0.00,,,0.00,weatherlink.com 1.10,2013-03-02 13:28:00,
2013-03-02 08:40:00,34.3,25.5,29.75,NW,325,0.0,0.0,70,0.00,,,0.00,Wunderground v.1.15,2013-03-02 13:40:00,
2013-03-02 08:50:00,34.4,25.3,29.75,North,360,0.0,0.0,69,0.00,,,0.00,Wunderground v.1.15,2013-03-02 13:50:00,
2013-03-02 08:58:00,34.5,25.0,29.75,NNW,343,0.0,0.0,69,0.00,,,0.00,weatherlink.com 1.10,2013-03-02 13:58:00,
2013-03-02 09:10:00,34.9,25.4,29.75,NNW,339,0.0,0.0,68,0.00,,,0.00,Wunderground v.1.15,2013-03-02 14:10:00,
2013-03-02 09:20:00,35.3,26.1,29.74,North,11,0.0,0.0,69,0.00,,,0.00,Wunderground v.1.15,2013-03-02 14:20:00,
2013-03-02 09:28:00,35.7,26.0,29.74,WNW,294,0.0,0.0,67,0.00,,,0.00,weatherlink.com 1.10,2013-03-02 14:28:00,
2013-03-02 09:40:00,35.9,25.6,29.74,NNW,340,0.0,0.0,66,0.00,,,0.00,Wunderground v.1.15,2013-03-02 14:40:00,
2013-03-02 09:50:00,35.7,25.8,29.73,NNW,329,0.0,0.0,67,0.00,,,0.00,Wunderground v.1.15,2013-03-02 14:50:00,
2013-03-02 09:58:00,35.4,25.0,29.73,NE,34,0.0,0.0,66,0.00,,,0.00,weatherlink.com 1.10,2013-03-02 14:58:00,
2013-03-02 10:10:00,35.9,26.0,29.73,NW,317,0.0,0.0,67,0.00,,,0.00,Wunderground v.1.15,2013-03-02 15:10:00,
2013-03-02 10:20:00,36.0,26.1,29.73,North,5,0.0,0.0,67,0.00,,,0.00,Wunderground v.1.15,2013-03-02 15:20:00,
2013-03-02 10:28:00,36.2,26.0,29.73,NNW,347,0.0,0.0,66,0.00,,,0.00,weatherlink.com 1.10,2013-03-02 15:28:00,
2013-03-02 10:40:00,36.0,25.7,29.73,West,281,0.0,0.0,66,0.00,,,0.00,Wunderground v.1.15,2013-03-02 15:40:00,
2013-03-02 10:50:00,36.2,25.9,29.72,WNW,289,0.0,0.0,66,0.00,,,0.00,Wunderground v.1.15,2013-03-02 15:50:00,
2013-03-02 10:58:00,36.3,25.0,29.73,NNW,336,0.0,0.0,64,0.00,,,0.00,weatherlink.com 1.10,2013-03-02 15:58:00,
2013-03-02 11:10:00,36.4,25.7,29.73,NNE,17,0.0,0.0,65,0.00,,,0.00,Wunderground v.1.15,2013-03-02 16:10:00,
2013-03-02 11:20:00,36.5,25.8,29.73,NNW,329,0.0,0.0,65,0.00,,,0.00,Wunderground v.1.15,2013-03-02 16:20:00,
2013-03-02 11:29:00,36.3,26.0,29.73,WNW,288,0.0,0.0,66,0.00,,,0.00,weatherlink.com 1.10,2013-03-02 16:29:00,
2013-03-02 11:40:00,36.7,25.7,29.73,North,360,0.0,0.0,64,0.00,,,0.00,Wunderground v.1.15,2013-03-02 16:40:00,
2013-03-02 11:45:00,36.4,25.0,29.73,North,350,0.0,0.0,63,0.00,,,0.00,weatherlink.com 1.10,2013-03-02 16:45:00,
2013-03-02 11:59:00,36.7,25.0,29.72,NNE,17,0.0,0.0,64,0.00,,,0.00,weatherlink.com 1.10,2013-03-02 16:59:00,
2013-03-02 12:10:00,36.9,25.9,29.72,NW,326,0.0,0.0,64,0.00,,,0.00,Wunderground v.1.15,2013-03-02 17:10:00,
2013-03-02 12:20:00,36.8,25.4,29.72,NW,310,0.0,0.0,63,0.00,,,0.00,Wunderground v.1.15,2013-03-02 17:20:00,
2013-03-02 12:30:00,36.5,25.5,29.71,NNW,330,0.0,0.0,64,0.00,,,0.00,Wunderground v.1.15,2013-03-02 17:30:00,
2013-03-02 12:40:00,36.2,25.6,29.71,North,355,0.0,0.0,65,0.00,,,0.00,Wunderground v.1.15,2013-03-02 17:40:00,
2013-03-02 12:50:00,36.6,25.9,29.71,West,271,0.0,0.0,65,0.00,,,0.00,Wunderground v.1.15,2013-03-02 17:50:00,
2013-03-02 13:00:00,36.8,25.8,29.71,WNW,288,0.0,0.0,64,0.00,,,0.00,Wunderground v.1.15,2013-03-02 18:00:00,
2013-03-02 13:10:00,36.7,25.7,29.70,West,267,0.0,0.0,64,0.00,,,0.00,Wunderground v.1.15,2013-03-02 18:10:00,
2013-03-02 13:15:00,36.6,25.0,29.70,NW,322,0.0,0.0,64,0.00,,,0.00,weatherlink.com 1.10,2013-03-02 18:15:00,
2013-03-02 13:29:00,37.0,26.0,29.70,WNW,293,0.0,0.0,64,0.00,,,0.00,weatherlink.com 1.10,2013-03-02 18:29:00,
2013-03-02 13:40:00,37.0,25.6,29.70,WNW,298,0.0,0.0,63,0.00,,,0.00,Wunderground v.1.15,2013-03-02 18:40:00,
2013-03-02 13:50:00,37.5,26.4,29.69,WNW,291,0.0,0.0,64,0.00,,,0.00,Wunderground v.1.15,2013-03-02 18:50:00,
2013-03-02 14:00:00,37.1,25.7,29.69,NNW,348,0.0,0.0,63,0.00,,,0.00,Wunderground v.1.15,2013-03-02 19:00:00,
2013-03-02 14:10:00,37.0,26.3,29.69,NW,309,0.0,0.0,65,0.00,,,0.00,Wunderground v.1.15,2013-03-02 19:10:00,
2013-03-02 14:15:00,37.2,26.0,29.69,NW,318,0.0,0.0,64,0.00,,,0.00,weatherlink.com 1.10,2013-03-02 19:15:00,
2013-03-02 14:30:00,37.3,26.2,29.68,NNW,342,0.0,0.0,64,0.00,,,0.00,Wunderground v.1.15,2013-03-02 19:30:00,
2013-03-02 14:40:00,37.3,25.8,29.68,NNW,333,0.0,0.0,63,0.00,,,0.00,Wunderground v.1.15,2013-03-02 19:40:00,
2013-03-02 14:46:00,37.4,26.0,29.68,NNW,329,0.0,0.0,64,0.00,,,0.00,weatherlink.com 1.10,2013-03-02 19:46:00,
2013-03-02 15:00:00,37.7,26.6,29.68,West,281,0.0,0.0,64,0.00,,,0.00,Wunderground v.1.15,2013-03-02 20:00:00,
2013-03-02 15:10:00,37.7,26.2,29.68,WNW,296,0.0,0.0,63,0.00,,,0.00,Wunderground v.1.15,2013-03-02 20:10:00,
2013-03-02 15:15:00,37.4,26.0,29.68,WNW,290,0.0,0.0,64,0.00,,,0.00,weatherlink.com 1.10,2013-03-02 20:15:00,
2013-03-02 15:30:00,37.3,26.6,29.68,North,9,0.0,0.0,65,0.00,,,0.00,Wunderground v.1.15,2013-03-02 20:30:00,
2013-03-02 15:40:00,37.1,26.4,29.68,WNW,294,0.0,0.0,65,0.00,,,0.00,Wunderground v.1.15,2013-03-02 20:40:00,
2013-03-02 15:47:00,37.0,26.0,29.68,NNW,337,0.0,0.0,65,0.00,,,0.00,weatherlink.com 1.10,2013-03-02 20:47:00,
2013-03-02 16:00:00,36.6,25.9,29.68,WNW,284,0.0,0.0,65,0.00,,,0.00,Wunderground v.1.15,2013-03-02 21:00:00,
2013-03-02 16:10:00,36.6,26.3,29.68,NW,320,0.0,0.0,66,0.00,,,0.00,Wunderground v.1.15,2013-03-02 21:10:00,
2013-03-02 16:17:00,36.5,26.0,29.68,NW,308,0.0,0.0,66,0.00,,,0.00,weatherlink.com 1.10,2013-03-02 21:17:00,
2013-03-02 16:30:00,36.6,26.7,29.68,NNW,336,0.0,0.0,67,0.00,,,0.00,Wunderground v.1.15,2013-03-02 21:30:00,
2013-03-02 16:40:00,36.3,26.7,29.68,NNW,328,0.0,0.0,68,0.00,,,0.00,Wunderground v.1.15,2013-03-02 21:40:00,
2013-03-02 16:46:00,36.1,26.0,29.68,NNE,12,0.0,0.0,68,0.00,,,0.00,weatherlink.com 1.10,2013-03-02 21:46:00,
2013-03-02 17:00:00,35.8,26.3,29.69,NW,324,0.0,0.0,68,0.00,,,0.00,Wunderground v.1.15,2013-03-02 22:00:00,
2013-03-02 17:10:00,35.6,26.1,29.69,NW,321,0.0,0.0,68,0.00,,,0.00,Wunderground v.1.15,2013-03-02 22:10:00,
2013-03-02 17:17:00,35.5,26.0,29.69,NNW,340,0.0,0.0,68,0.00,,,0.00,weatherlink.com 1.10,2013-03-02 22:17:00,
2013-03-02 17:30:00,35.3,25.8,29.69,NW,306,0.0,0.0,68,0.00,,,0.00,Wunderground v.1.15,2013-03-02 22:30:00,
2013-03-02 17:40:00,35.1,25.6,29.69,WNW,288,0.0,0.0,68,0.00,,,0.00,Wunderground v.1.15,2013-03-02 22:40:00,
2013-03-02 17:47:00,34.9,25.0,29.69,NNW,338,0.0,0.0,68,0.00,,,0.00,weatherlink.com 1.10,2013-03-02 22:47:00,
2013-03-02 18:00:00,34.8,25.7,29.70,NNW,341,0.0,0.0,69,0.00,,,0.00,Wunderground v.1.15,2013-03-02 23:00:00,
2013-03-02 18:10:00,34.7,25.6,29.70,North,350,0.0,0.0,69,0.00,,,0.00,Wunderground v.1.15,2013-03-02 23:10:00,
2013-03-02 18:18:00,34.5,25.0,29.70,WNW,294,0.0,0.0,69,0.00,,,0.00,weatherlink.com 1.10,2013-03-02 23:18:00,
2013-03-02 18:30:00,34.3,25.5,29.71,NNW,327,0.0,0.0,70,0.00,,,0.00,Wunderground v.1.15,2013-03-02 23:30:00,
2013-03-02 18:40:00,34.2,25.8,29.71,North,350,0.0,0.0,71,0.00,,,0.00,Wunderground v.1.15,2013-03-02 23:40:00,
2013-03-02 18:48:00,34.0,26.0,29.71,NNW,343,0.0,0.0,71,0.00,,,0.00,weatherlink.com 1.10,2013-03-02 23:48:00,
2013-03-02 19:00:00,33.8,25.7,29.72,NW,313,0.0,0.0,72,0.00,,,0.00,Wunderground v.1.15,2013-03-03 00:00:00,
2013-03-02 19:10:00,33.7,26.0,29.71,NW,325,0.0,0.0,73,0.00,,,0.00,Wunderground v.1.15,2013-03-03 00:10:00,
2013-03-02 19:18:00,33.5,25.0,29.72,NNW,333,0.0,0.0,72,0.00,,,0.00,weatherlink.com 1.10,2013-03-03 00:18:00,
2013-03-02 19:30:00,33.4,25.7,29.72,North,355,0.0,0.0,73,0.00,,,0.00,Wunderground v.1.15,2013-03-03 00:30:00,
2013-03-02 19:40:00,33.4,26.0,29.72,WNW,298,0.0,0.0,74,0.00,,,0.00,Wunderground v.1.15,2013-03-03 00:40:00,
2013-03-02 19:47:00,33.3,26.0,29.72,NW,308,0.0,0.0,74,0.00,,,0.00,weatherlink.com 1.10,2013-03-03 00:47:00,
2013-03-02 20:00:00,33.0,25.9,29.72,NNW,333,0.0,0.0,75,0.00,,,0.00,Wunderground v.1.15,2013-03-03 01:00:00,
2013-03-02 20:10:00,32.7,26.0,29.72,NNW,339,0.0,0.0,76,0.00,,,0.00,Wunderground v.1.15,2013-03-03 01:10:00,
2013-03-02 20:18:00,32.5,26.0,29.72,NW,309,0.0,0.0,77,0.00,,,0.00,weatherlink.com 1.10,2013-03-03 01:18:00,
2013-03-02 20:30:00,32.3,25.9,29.72,NNW,328,0.0,0.0,77,0.00,,,0.00,Wunderground v.1.15,2013-03-03 01:30:00,
2013-03-02 20:40:00,32.0,26.2,29.73,NNW,341,0.0,0.0,79,0.00,,,0.00,Wunderground v.1.15,2013-03-03 01:40:00,
2013-03-02 20:48:00,31.5,27.0,29.73,NNW,343,0.0,0.0,82,0.00,,,0.00,weatherlink.com 1.10,2013-03-03 01:48:00,
2013-03-02 21:00:00,30.8,27.1,29.73,NW,318,0.0,0.0,86,0.00,,,0.00,Wunderground v.1.15,2013-03-03 02:00:00,
2013-03-02 21:10:00,30.4,27.3,29.73,WNW,294,0.0,0.0,88,0.00,,,0.00,Wunderground v.1.15,2013-03-03 02:10:00,
2013-03-02 21:18:00,30.2,27.0,29.73,NW,314,0.0,0.0,88,0.00,,,0.00,weatherlink.com 1.10,2013-03-03 02:18:00,
2013-03-02 21:30:00,30.1,26.7,29.73,NNW,332,0.0,0.0,87,0.00,,,0.00,Wunderground v.1.15,2013-03-03 02:30:00,
2013-03-02 21:40:00,30.2,26.5,29.73,North,355,0.0,0.0,86,0.00,,,0.00,Wunderground v.1.15,2013-03-03 02:40:00,
2013-03-02 21:50:00,30.2,26.2,29.73,West,271,0.0,0.0,85,0.00,,,0.00,Wunderground v.1.15,2013-03-03 02:50:00,
2013-03-02 22:00:00,30.1,25.8,29.72,NW,311,0.0,0.0,84,0.00,,,0.00,Wunderground v.1.15,2013-03-03 03:00:00,
2013-03-02 22:10:00,30.0,25.8,29.72,NNW,334,0.0,0.0,84,0.00,,,0.00,Wunderground v.1.15,2013-03-03 03:10:00,
2013-03-02 22:18:00,29.9,26.0,29.72,NW,320,0.0,0.0,84,0.00,,,0.00,weatherlink.com 1.10,2013-03-03 03:18:00,
2013-03-02 22:30:00,29.8,25.6,29.72,NNW,327,0.0,0.0,84,0.00,,,0.00,Wunderground v.1.15,2013-03-03 03:30:00,
2013-03-02 22:40:00,29.7,25.5,29.72,NNW,337,0.0,0.0,84,0.00,,,0.00,Wunderground v.1.15,2013-03-03 03:40:00,
2013-03-02 22:49:00,29.6,25.0,29.71,NW,323,0.0,0.0,84,0.00,,,0.00,weatherlink.com 1.10,2013-03-03 03:49:00,
2013-03-02 23:00:00,29.6,25.1,29.72,NNW,338,0.0,0.0,83,0.00,,,0.00,Wunderground v.1.15,2013-03-03 04:00:00,
2013-03-02 23:10:00,29.5,24.7,29.72,NNW,338,0.0,0.0,82,0.00,,,0.00,Wunderground v.1.15,2013-03-03 04:10:00,
2013-03-02 23:20:00,29.4,25.0,29.71,NNW,342,0.0,0.0,82,0.00,,,0.00,weatherlink.com 1.10,2013-03-03 04:20:00,
2013-03-02 23:30:00,29.4,24.3,29.71,West,275,0.0,0.0,81,0.00,,,0.00,Wunderground v.1.15,2013-03-03 04:30:00,
2013-03-02 23:40:00,29.4,24.3,29.71,North,5,0.0,0.0,81,0.00,,,0.00,Wunderground v.1.15,2013-03-03 04:40:00,
2013-03-02 23:49:00,29.3,24.0,29.71,NW,325,0.0,0.0,80,0.00,,,0.00,weatherlink.com 1.10,2013-03-03 04:49:00,